Location: Alafon
(8.4500°N, 4.2333°E)
Time: 00:24:45
(UTC+00:00)

H-2A R/B - Pass Details

Date: 05 July 2020
Orbit: 253 x 30529 km, 28.0° (Epoch: 06 August)

Event Time Altitude Azimuth Distance (km) Brightness Sun altitude
Rises 18:21:06 0° 229° (SW) 9,574 8.5 -4.3°
Reaches altitude 10° 18:34:50 10° 205° (SSW) 4,201 6.3 -7.4°
Maximum altitude 18:38:04 12° 185° (S) 3,015 5.4 -8.1°
Drops below altitude 10° 18:40:12 10° 164° (SSE) 2,488 4.8 -8.6°
Enters shadow 18:41:32 - 146° (SSE) 2,365 4.5 -8.9°
